Regional Weather Roundup
Issued by NWS

Home | Current Version | Previous Version | Graphics & Text | Print | Product List | Glossary On
Versions: 1 2 3 4 5 6 7 8 9 10 11 12 13 14 15 16 17 18 19 20 21 22 23 24 25 26 27 28 29 30 31 32 33 34 35 36 37 38 39 40 41 42 43 44 45 46 47 48 49 50
000
ASUS45 KTFX 201910
RWRMT
MONTANA REGIONAL WEATHER ROUNDUP
NATIONAL WEATHER SERVICE GREAT FALLS MT
100 PM MDT FRI APR 20 2018

NOTE: "FAIR" INDICATES FEW OR NO CLOUDS BELOW 12000 FEET WITH NO
SIGNIFICANT WEATHER AND/OR OBSTRUCTIONS TO VISIBILITY.

MTZ001>007-043-202000-
WEST OF THE DIVIDE

CITY           SKY/WX    TMP DP  RH WIND       PRES   REMARKS
KALISPELL      FAIR      56  28  34 S9        30.16F
MISSOULA       FAIR      57  27  31 CALM      30.16F
BUTTE          FAIR      56  18  22 NE8       30.14F
MULLAN PASS    FAIR      45  25  45 VRB3      30.19S
ANACONDA         N/A     52  19  28 N9        30.15F
DEER LODGE       N/A     54  19  26 N8        30.18F
HAMILTON         N/A     55  25  30 MISG      30.17F
PLAINS           N/A     59  30  33 CALM      30.16F
RONAN            N/A     57  25  28 W8        30.19S
$$

MTZ008-052>055-202000-
SOUTHWEST MONTANA

CITY           SKY/WX    TMP DP  RH WIND       PRES   REMARKS
BOZEMAN        FAIR      57  30  35 CALM      30.12F
DILLON         FAIR      55  24  30 N9        30.11F
ENNIS          SUNNY     55  27  33 NW20G26   30.13F
W YELLOWSTONE  FAIR      46  23  39 NE13      30.07F
THREE FORKS      N/A     59  26  28 NE5       30.10F
TWIN BRIDGES     N/A     59  22  24 NW13      30.08F
$$

MTZ009-010-012-014-046-048-049-054-202000-
EAST SLOPES AND CENTRAL MONTANA

CITY           SKY/WX    TMP DP  RH WIND       PRES   REMARKS
CUT BANK       FAIR      59  18  20 MISG      30.09F
GREAT FALLS    FAIR      60  18  19 VRB6G18   30.10F
HELENA         FAIR      62  22  21 W12       30.12F
CHOTEAU          N/A     59  14  17 VRB5      30.11F
FAIRFIELD      FAIR      59  15  17 SW7       30.10F
RAYNESFORD     FAIR      59  23  25 NW10      30.10F
WHITE SULPHUR    N/A     55  23  28 NW5       30.10F
$$

MTZ011-013-016-021-045-047-050-051-202000-
NORTH CENTRAL MONTANA

CITY           SKY/WX    TMP DP  RH WIND       PRES   REMARKS
HAVRE          FAIR      61  31  32 VRB7      30.10F
LEWISTOWN      FAIR      60  29  30 VRB3      30.10F
N BAR RANCH    FAIR      59  28  31 NE10      30.13S
CHINOOK          N/A     57  37  47 SW3       30.10F
GEYSER         FAIR      60  26  28 E10       30.09F
GRASS RANGE    FAIR      60  26  27 CALM      30.07F
STANFORD       FAIR      58  24  27 N5        30.11F
$$

MTZ017>020-022>027-061-062-202000-
NORTHEAST MONTANA

CITY           SKY/WX    TMP DP  RH WIND       PRES   REMARKS
GLASGOW        FAIR      59  35  40 SE9       30.11F
GLENDIVE       FAIR      58  33  39 E8        30.12F
JORDAN           N/A     62  37  39 VRB5      30.09F
MALTA          SUNNY     59  37  44 SE7G14    30.09F
SIDNEY         FAIR      62  33  33 SE15G22   30.13F
WOLF POINT     FAIR      62  34  35 E9        30.12F
PLENTYWOOD       N/A     55  36  47 MISG      30.16F
POPLAR           N/A     59  32  36 SE8       30.14S
SCOBEY           N/A     59  34  39 E10       30.12F
$$

MTZ028>42-056>058-202000-
SOUTHCENTRAL AND SOUTHEAST MONTANA

CITY           SKY/WX    TMP DP  RH WIND       PRES   REMARKS
BAKER          FAIR      58  33  39 SE15      30.11F
BILLINGS       FAIR      58  38  47 NE12G18   30.08F
LIVINGSTON     FAIR      59  31  34 NE7       30.10F
MILES CITY     FAIR      59  37  44 NE6       30.08F
BIG TIMBER     SUNNY     59  28  31 NE7G13    30.11F
EKALAKA          N/A     55  28  35 E12       30.06
FORSYTH          N/A     59  34  38 E8        30.06F
HARLOWTON      FAIR      58  22  25 E5        30.10F
LAUREL           N/A     61  36  39 NE13      30.08F
$$

REGIONAL REPORTS...DAKOTAS

CITY           SKY/WX    TMP DP  RH WIND       PRES   REMARKS
WILLISTON      FAIR      61  32  33 SE15G21   30.16F
MINOT          FAIR      56  31  38 SE12      30.26F
DICKINSON      FAIR      60  28  29 SE17      30.14F
BEACH          FAIR      59  28  31 S17G25    30.16F
CROSBY         FAIR      55  37  50 S9        30.20F
TIOGA          FAIR      54  37  54 SE21      30.21F
WATFORD CITY   PTSUNNY   59  32  36 SE12G22   30.17F
BISMARCK       FAIR      60  30  32 S16G23    30.26F
GRAND FORKS    FAIR      51  33  50 S10       30.40S
FARGO          FAIR      54  33  45 SE14      30.40F
BUFFALO SD       N/A     53  30  41 SE18G30   30.06F
RAPID CITY     PTSUNNY   53  30  41 S24G31    30.14S
$$

REGIONAL REPORTS...WYOMING/IDAHO/WASHINGTON

CITY           SKY/WX    TMP DP  RH WIND       PRES   REMARKS
GILLETTE       PTSUNNY   48  30  49 SE10      30.07F
SHERIDAN       FAIR      58  34  40 N12       30.06F
BUFFALO WY     FAIR      54  33  45 NE12      30.07S
CODY           FAIR      57  30  35 N24G32    30.03F
YELLOWSTONE LA   N/A     48  16  27 MISG      30.11F
IDAHO FALLS    FAIR      64  25  22 N18G29    29.99F
SALMON         FAIR      58  26  29 E3        30.11F
BOISE          FAIR      63  31  30 NW22G31   30.11F
SPOKANE        PTSUNNY   56  32  40 SW12      30.20F
$$

REGIONAL REPORTS...ALBERTA

CITY           SKY/WX    TMP DP  RH WIND       PRES   REMARKS
CALGARY        PTSUNNY   54  19  26 S17       30.04F
CARDSTON         N/A     55  23  28 W14G23      N/A
EDMONTON       SUNNY     54  28  37 NE5       30.02S
FORT MCMURRAY  PTSUNNY   54  30  40 W15G22    29.90S
HIGH LEVEL     MOSUNNY   54  25  32 S3        29.76S
LETHBRIDGE     CLOUDY    57  21  24 NW3       30.06F
LLOYDMINSTER   PTSUNNY   50  37  62 NW7       30.02S
MEDICINE HAT   PTSUNNY   61  30  31 SW14G20   30.04F
MILK RIVER       N/A     61  27  27 NW12G17     N/A
ONEFOUR          N/A     57  32  38 S3          N/A
PEACE RIVER    PTSUNNY   43  28  56 SW15      29.92S
PINCHER CREEK  MOSUNNY   55  27  33 W16G24    30.07F
WATERTON GATE    N/A     54  23  30 SW15G22     N/A
$$

REGIONAL REPORTS...SASKATCHEWAN

CITY           SKY/WX    TMP DP  RH WIND       PRES   REMARKS
CYPRESS HILLS    N/A     48  32  53 S7          N/A
ESTEVAN        MOSUNNY   59  32  36 SE12G21   30.20F
MOOSE JAW        N/A     61  28  29 S17G23      N/A
PRINCE ALBERT  PTSUNNY   43  32  65 S6        30.14F
REGINA         MOSUNNY   52  41  66 SE18G25   30.18F
ROCKGLEN         N/A     57  28  33 SE10        N/A
SASKATOON      PTSUNNY   54  39  58 S15       30.09F
SWIFT CURRENT  MOSUNNY   59  39  47 S21       30.08F
$$



USA.gov is the U.S. government's official web portal to all federal, state and local government web resources and services.